Location: El Bakhil
(32.7726°N, 5.5387°W)
Time: 03:50:14
(UTC+00:00)

Cosmos 1933 Rocket - Pass Details

Date: 03 March 2021
Orbit: 607 x 629 km, 82.5° (Epoch: 12 April)

Event Time Altitude Azimuth Distance (km) Brightness Sun altitude
Rises 18:52:23 0° 166° (SSE) 2,851 6.8 -7.4°
Reaches altitude 10° 18:54:43 10° 157° (SSE) 1,954 5.9 -7.9°
Maximum altitude 18:58:39 35° 91° (E) 986 4.1 -8.7°
Drops below altitude 10° 19:02:38 10° 26° (NNE) 1,976 5.9 -9.5°
Sets 19:05:00 0° 17° (NNE) 2,888 6.8 -10.0°
